Theta_e
313 311 309 306 305 304 304 304 303 303 305 305 307 309 309 309 309 310 315 317 318 320 319 319 319 320 321 320 324 325 327 327 330 333 334 333 335 339 340 339 337 339 338 344 345 341 341 338 339 345 342 339 333 333
314 313 313 313 312 311 308 305 303 303 304 305 306 308 310 309 309 309 316 318 317 318 319 316 316 317 317 319 321 322 325 326 328 333 332 335 338 343 341 344 335 339 344 347 348 344 341 338 338 336 341 346 352 347
316 315 314 313 313 313 312 309 304 303 304 306 307 309 310 310 309 309 312 314 315 318 320 321 321 320 320 318 315 320 321 322 324 326 329 336 343 341 346 341 335 340 338 341 342 338 336 335 337 338 344 350 350 350
318 317 316 315 314 314 313 311 307 304 305 306 308 308 308 309 309 309 311 314 316 316 320 322 321 322 321 319 317 315 316 318 319 322 325 326 332 337 342 343 344 339 337 336 340 338 336 337 338 338 340 343 347 346
318 318 318 316 315 315 314 312 309 304 305 307 308 308 307 308 308 310 311 312 313 316 320 319 318 319 321 320 321 322 322 322 320 321 324 326 326 332 341 338 337 340 340 341 348 340 339 337 333 335 336 346 345 345
318 318 318 317 316 316 315 313 310 305 305 306 308 307 308 309 308 312 320 316 314 313 318 320 317 319 321 323 322 323 325 326 325 323 322 323 323 327 335 339 339 336 340 341 335 333 336 331 333 340 344 341 340 342
317 318 318 318 317 317 316 314 310 306 306 308 308 308 309 310 309 316 319 316 314 313 317 323 322 323 323 322 326 328 328 327 324 324 323 323 324 326 332 337 340 336 341 339 339 336 337 335 342 341 339 337 338 340
317 318 318 318 317 317 317 314 310 307 307 308 308 310 311 310 312 316 314 312 313 314 317 324 323 321 323 329 328 328 328 329 327 325 326 327 327 326 328 336 334 332 332 334 336 338 339 345 343 339 338 338 338 339
318 317 318 318 318 317 317 314 309 306 308 308 308 311 313 314 319 318 313 312 312 314 320 325 326 325 325 325 324 334 331 331 327 329 328 328 328 330 328 333 333 330 330 332 333 336 336 339 342 340 338 338 338 338
317 315 316 318 318 317 316 312 306 306 311 310 311 317 325 320 315 313 312 315 316 316 317 323 323 326 327 327 326 333 336 334 331 329 328 331 330 335 340 336 338 338 336 336 336 337 336 337 336 337 341 338 338 338
317 316 316 317 317 317 316 313 306 307 315 316 320 321 317 312 316 319 323 324 324 325 324 325 324 327 326 331 334 329 333 339 339 333 336 333 332 337 336 339 340 340 338 337 335 336 336 335 335 336 336 338 340 340
317 315 316 317 317 317 315 307 305 310 316 313 312 313 315 319 323 326 327 327 326 327 325 327 328 327 327 330 334 330 334 335 336 335 338 337 343 341 332 327 339 338 337 336 337 337 337 338 337 336 336 337 335 339
317 316 316 317 318 317 312 306 304 308 310 315 317 322 322 324 327 327 329 330 331 328 327 330 332 331 332 332 332 333 331 333 333 337 335 335 340 338 332 331 335 333 333 334 335 336 337 338 337 339 341 338 338 343
316 316 316 317 318 316 307 305 305 310 311 322 325 326 328 329 328 328 329 330 331 330 330 333 332 333 330 330 328 330 330 329 333 330 335 342 337 336 335 336 335 333 333 333 334 335 337 340 339 339 339 339 343 340
316 316 316 317 315 308 306 306 311 312 318 323 325 327 328 326 326 326 326 327 326 326 328 331 330 333 332 332 332 329 332 333 328 337 340 338 336 334 334 332 331 331 332 334 334 335 336 340 342 340 338 343 340 339
316 317 318 314 308 308 306 311 311 316 321 322 325 328 327 327 326 326 326 328 327 326 326 327 329 331 332 333 331 330 330 332 336 335 336 334 334 332 332 332 331 331 332 332 334 335 335 339 342 340 342 342 338 338
316 318 314 311 311 310 309 313 316 318 325 327 328 326 326 326 327 325 329 332 327 330 329 328 329 330 330 332 331 332 334 334 332 330 331 332 332 331 332 332 331 331 332 332 334 335 336 335 340 341 345 338 337 336
316 317 314 312 314 310 317 314 321 325 328 327 328 327 326 328 328 328 329 330 330 328 326 328 324 326 330 329 331 331 328 327 327 328 328 331 331 333 330 329 331 330 331 331 333 333 335 336 343 344 337 336 334 334
317 315 315 314 311 313 322 322 322 327 328 327 328 328 326 329 327 328 328 328 325 325 325 325 326 327 327 326 326 325 325 325 327 327 327 329 329 329 330 328 329 328 331 332 332 335 335 336 336 336 334 334 333 330
317 315 310 309 309 318 323 325 325 327 328 327 327 328 326 328 329 331 325 324 324 324 324 325 325 323 321 321 321 322 322 324 326 328 326 326 326 327 328 328 327 327 329 331 333 332 333 330 327 326 325 325 329 328
311 313 313 313 314 318 322 326 330 327 326 326 326 326 329 328 327 328 326 324 324 323 323 323 320 319 319 319 319 320 323 326 328 327 327 326 325 325 326 327 328 328 329 333 333 328 329 327 323 321 320 322 324 324
313 313 314 315 319 319 322 322 325 326 328 327 326 327 329 329 328 330 326 326 324 323 322 321 320 319 320 320 320 321 322 323 323 322 322 323 326 325 326 326 327 329 330 330 331 328 326 326 325 322 322 322 321 323
311 313 315 320 321 321 322 322 326 326 328 329 327 330 329 329 328 325 329 328 327 322 320 321 321 320 319 319 319 319 320 320 320 320 320 320 320 321 322 322 322 323 325 326 329 328 325 324 324 326 326 326 326 327
314 317 321 322 324 323 324 327 326 327 330 329 325 325 327 331 327 330 330 332 330 323 322 324 322 323 323 321 321 320 319 319 320 320 319 318 319 319 320 321 321 321 322 325 325 325 324 323 323 324 325 326 325 326
318 319 321 319 324 326 325 326 327 329 328 326 325 328 329 327 329 329 330 330 330 329 326 325 324 321 322 321 325 324 321 321 323 324 321 320 321 320 320 318 319 319 319 323 324 322 321 323 324 325 324 325 324 324
319 320 320 323 322 324 325 326 329 328 326 325 324 325 325 328 328 330 330 328 327 325 327 327 324 327 322 322 322 322 320 320 319 320 321 320 318 317 321 323 323 321 321 321 321 323 323 322 323 322 323 322 322 324
322 323 323 321 324 326 328 328 328 327 326 326 326 327 329 328 329 328 325 326 325 325 325 320 322 324 322 320 321 319 319 319 319 319 318 318 317 317 316 316 315 314 316 318 318 318 319 319 320 320 320 319 319 319
322 324 325 324 324 323 327 328 327 326 324 324 326 327 327 328 328 327 327 324 323 322 322 322 322 322 322 320 319 319 320 319 319 319 319 318 317 316 315 314 312 311 311 313 315 316 317 317 318 319 319 318 318 318
324 324 325 325 324 326 325 327 327 325 325 325 327 328 327 327 325 326 324 324 322 321 322 322 322 322 322 321 322 320 319 320 321 321 319 318 318 316 315 314 313 313 313 313 312 313 313 313 314 316 316 316 316 316
324 324 325 325 324 325 324 325 326 325 326 326 325 329 328 327 325 323 324 323 322 323 322 322 321 321 322 321 321 321 321 320 320 319 319 318 317 316 316 315 313 312 312 313 313 313 312 313 313 313 313 313 313 313
324 325 324 324 324 323 325 324 325 326 325 325 326 328 328 327 326 325 324 323 323 321 322 322 321 320 320 321 321 321 320 319 318 317 317 317 317 317 316 315 313 312 312 312 312 311 311 310 310 310 311 312 311 310
324 324 324 323 323 325 325 324 326 326 326 327 328 328 328 329 329 327 325 324 324 323 321 322 321 321 321 319 319 318 318 317 317 317 317 317 317 317 316 315 314 313 313 312 311 311 311 310 310 309 308 308 308 308
324 324 323 323 329 327 327 328 329 327 326 328 328 327 328 326 327 325 324 324 324 323 323 322 320 321 321 319 318 318 317 315 314 314 315 315 315 315 316 316 315 314 314 313 312 312 311 311 311 310 309 308 307 307
Wind_Speed
14 15 16 17 18 19 19 20 19 20 19 19 18 15 14 15 14 13 13 9 7 6 18 21 17 15 13 11 12 14 11 9 10 12 11 13 15 3 4 2 11 8 4 2 10 16 17 13 14 14 14 28 16 15
14 15 16 17 18 19 20 20 20 20 20 20 19 17 14 12 12 9 9 9 8 8 13 33 35 33 31 27 14 15 15 18 7 7 10 6 9 4 7 4 9 8 5 9 15 6 18 13 16 21 23 19 6 11
14 15 16 17 19 19 20 21 21 21 21 22 21 17 14 12 9 8 12 13 16 10 14 14 15 21 25 25 29 14 12 16 15 13 10 5 2 4 6 7 3 5 10 3 14 6 15 19 11 11 23 8 12 15
16 16 17 18 19 21 21 22 22 22 23 24 18 15 13 11 11 11 14 12 11 8 6 8 2 10 8 11 15 24 21 21 17 10 10 11 10 8 7 4 3 5 3 4 10 16 11 7 7 17 31 25 15 15
17 17 17 18 20 21 23 23 24 24 23 22 16 16 18 17 13 14 17 15 12 9 6 10 30 33 25 27 20 25 19 14 10 11 10 10 11 12 3 2 11 10 14 9 4 2 8 8 15 26 39 15 13 15
17 17 17 18 19 21 23 24 26 26 25 19 18 22 24 18 11 7 3 5 7 9 4 5 15 17 20 15 11 10 11 11 10 10 10 10 17 13 8 11 12 18 13 10 5 16 12 9 25 23 9 9 10 11
17 17 17 18 19 21 23 25 27 28 21 16 21 22 15 10 9 4 5 3 4 5 3 6 6 9 8 12 9 10 13 7 10 11 11 11 12 11 12 13 16 5 10 10 17 28 22 27 11 8 8 9 5 10
17 17 17 17 19 21 24 27 28 23 21 18 19 6 10 7 6 4 6 3 5 6 4 4 6 11 9 7 7 8 9 9 10 11 10 9 10 10 10 14 12 10 5 14 0 25 1 8 18 4 4 7 6 8
17 16 16 17 19 21 24 27 27 22 19 18 12 1 3 4 2 2 4 5 3 3 3 5 11 13 4 6 4 8 3 7 5 11 11 9 11 8 10 13 13 11 9 6 6 5 5 1 16 10 4 6 5 5
17 16 16 17 18 20 23 26 21 23 19 11 3 6 3 4 4 6 1 3 3 4 3 5 10 13 12 7 3 3 5 6 6 10 8 12 12 14 9 9 4 4 4 4 7 5 6 6 7 4 7 9 8 6
16 16 16 17 18 20 22 24 19 23 5 4 5 4 5 4 4 4 3 4 4 4 4 4 6 10 9 7 5 3 1 5 3 4 4 9 11 4 1 5 3 4 4 4 3 8 11 12 11 9 10 7 9 10
15 16 16 17 18 20 24 12 19 12 7 7 11 9 4 5 5 5 4 3 5 2 3 4 6 10 7 4 3 4 4 2 4 1 1 2 3 10 14 22 8 3 5 5 5 6 9 11 13 13 8 2 3 32
15 15 16 17 18 19 17 12 18 13 8 4 4 4 3 4 3 4 3 1 3 2 3 4 7 3 4 2 4 3 4 5 7 3 2 2 3 6 7 5 18 7 7 8 9 9 11 9 13 13 12 8 13 6
14 15 17 18 19 21 9 15 17 4 3 4 5 4 5 5 4 2 5 7 5 4 8 6 4 3 3 3 3 4 4 4 3 5 1 5 5 5 0 5 7 9 10 10 10 11 13 13 10 14 17 10 20 13
14 15 17 20 14 6 11 18 5 4 5 4 4 4 6 4 5 7 5 6 4 5 6 4 4 4 4 4 4 4 4 5 4 4 3 3 5 5 5 6 7 8 10 11 11 10 11 14 13 10 16 17 17 12
12 14 11 4 4 10 16 5 1 4 5 4 6 9 4 6 8 3 3 4 4 7 7 4 3 4 5 4 4 6 5 5 4 2 1 3 0 3 5 7 7 8 9 10 11 12 12 12 13 16 18 18 23 21
9 5 4 5 10 15 10 3 4 5 5 4 5 7 6 6 7 3 4 4 7 5 3 3 4 2 6 4 3 4 4 7 7 6 3 2 2 4 7 9 10 10 10 10 9 15 15 15 20 10 10 15 21 19
7 8 7 8 15 10 6 7 5 5 7 8 8 6 6 5 4 3 6 6 5 4 4 3 3 4 4 4 4 6 8 9 8 6 6 5 7 9 8 10 9 11 12 14 12 13 17 13 10 6 13 21 17 20
7 6 12 18 12 4 4 8 6 4 8 9 6 7 4 2 2 4 4 2 3 4 3 1 3 3 3 4 9 11 11 10 10 10 11 11 10 7 8 16 11 11 15 11 13 9 9 11 9 4 7 6 11 18
13 14 12 12 7 4 4 3 7 4 5 4 4 6 1 2 3 2 6 3 5 2 2 3 2 3 7 11 12 11 11 8 7 9 9 8 9 11 10 10 9 12 14 12 10 2 1 8 15 20 27 30 9 16
7 4 1 6 6 8 5 3 4 6 6 6 6 3 1 3 3 1 3 3 4 3 2 2 6 9 9 12 16 16 11 9 8 6 10 9 8 13 13 11 12 12 8 5 3 2 5 11 13 21 32 12 23 10
2 2 4 7 5 4 5 8 6 4 3 8 7 4 5 3 4 1 5 2 3 4 1 2 3 6 8 12 10 14 11 9 12 9 8 7 4 3 3 5 6 4 4 5 7 8 9 9 12 16 25 19 11 8
5 5 5 8 4 4 7 12 8 5 4 3 2 1 1 1 2 2 2 3 4 6 7 3 2 6 5 11 16 18 17 14 8 7 10 12 15 16 16 16 15 9 5 5 7 13 13 12 10 9 5 5 16 20
4 4 4 5 8 5 5 6 5 6 4 4 1 2 3 3 3 2 3 3 4 8 6 6 5 3 2 2 2 3 8 12 12 11 8 12 8 10 13 12 16 20 21 15 20 19 17 11 4 1 3 8 11 12
3 5 4 5 5 6 6 7 5 4 5 4 6 4 2 1 2 3 3 2 4 6 7 6 5 4 5 3 3 8 8 7 6 5 4 12 11 11 12 16 20 26 32 26 24 23 16 16 13 12 5 6 11 7
5 6 6 5 7 7 6 2 4 6 5 4 2 2 2 2 3 4 1 4 6 6 8 6 5 8 5 5 5 5 9 8 0 5 7 5 8 11 6 3 3 8 12 14 13 16 18 19 19 17 21 24 21 31
5 6 8 6 5 2 3 3 2 3 3 3 2 2 2 4 2 3 10 8 2 6 15 23 14 6 1 7 2 8 11 9 8 7 10 9 11 12 13 10 9 13 20 16 16 15 14 12 11 9 11 17 19 17
7 6 11 8 7 7 7 2 1 2 2 3 4 3 5 5 1 4 4 15 13 7 5 6 4 4 3 27 19 12 13 17 6 6 10 12 12 12 13 14 20 21 21 20 19 20 16 12 9 11 13 11 12 13
9 7 10 12 8 4 7 2 3 5 3 3 1 1 2 2 1 1 5 7 9 7 8 2 2 3 22 19 12 12 1 8 4 9 8 6 8 15 16 15 15 14 18 21 20 18 21 22 20 14 14 14 12 11
12 10 10 10 10 7 6 6 5 5 8 3 2 4 2 1 4 9 7 8 9 10 16 3 12 13 20 8 10 16 17 9 6 6 6 7 11 14 14 15 16 15 14 15 15 13 15 16 15 14 15 15 13 13
8 7 10 10 10 9 10 5 4 4 2 1 2 3 2 4 6 10 12 11 6 7 8 5 8 2 3 11 13 10 7 10 11 11 11 15 15 12 12 15 16 15 14 15 16 16 15 16 15 14 14 13 15 14
8 8 7 9 5 5 5 3 7 4 2 2 2 3 3 3 5 5 9 12 8 8 1 1 4 5 2 6 11 9 9 11 9 9 6 11 9 8 8 12 13 13 12 13 14 14 14 15 14 14 13 13 13 13
9 8 10 5 3 3 5 1 4 5 6 2 4 8 4 5 4 5 11 14 14 12 7 8 5 6 2 8 13 14 15 12 10 9 9 10 8 8 13 10 9 6 8 10 12 12 11 11 11 11 10 10 9 8
Wind_Direction
347 347 346 345 344 343 343 344 344 347 348 349 349 344 339 341 345 352 300 295 314 288 291 279 287 287 279 255 259 279 296 272 274 248 247 270 274 95 113 243 271 259 266 357 319 271 247 41 346 332 340 294 228 209
343 346 346 346 345 344 344 342 339 339 340 338 335 333 325 323 332 339 287 328 303 265 278 300 288 275 261 263 279 284 281 290 288 321 261 293 292 146 164 234 232 272 6 305 210 264 331 344 333 311 288 276 62 128
324 334 341 342 343 342 342 342 338 335 335 332 329 323 315 307 304 299 298 308 305 271 277 261 259 257 228 239 243 257 258 268 283 294 303 313 285 148 204 225 245 57 24 293 313 355 353 327 320 309 299 2 60 70
307 315 324 331 335 339 338 338 336 334 333 332 327 328 324 306 295 289 280 289 293 280 280 295 345 334 281 241 235 231 253 272 281 296 282 271 275 174 223 237 215 146 29 255 276 295 330 301 20 228 261 312 85 84
296 302 310 322 328 333 336 335 334 332 331 329 326 324 317 305 291 283 274 267 253 264 308 305 305 290 261 238 225 228 234 251 258 252 255 252 258 269 312 311 286 152 192 204 198 155 265 328 317 283 274 228 87 88
295 298 302 310 321 326 331 331 331 330 328 322 320 316 312 296 282 278 237 177 214 218 280 294 323 284 267 261 234 253 255 249 247 248 246 262 268 275 271 258 243 224 146 81 218 216 169 170 253 241 78 99 100 100
296 296 300 303 315 324 328 331 331 331 332 328 323 324 319 289 202 266 21 64 159 186 262 281 288 264 225 238 221 231 233 228 240 244 241 251 261 269 261 256 270 354 122 148 253 199 190 212 227 111 122 105 102 97
295 297 300 301 311 319 325 329 332 332 331 329 326 346 37 89 166 242 222 225 184 263 272 280 275 284 33 308 266 218 230 216 227 245 253 252 249 244 256 266 282 315 359 109 104 275 299 86 6 88 119 124 131 131
293 295 300 302 309 316 323 328 330 329 329 324 317 175 298 249 221 79 205 177 185 277 293 280 291 306 32 3 352 282 348 246 207 233 237 252 250 238 246 254 256 256 290 315 209 11 340 133 163 196 179 185 194 154
290 293 298 303 307 316 322 329 328 330 325 296 260 217 203 88 163 126 124 182 193 199 230 262 294 300 313 181 272 280 297 240 246 222 234 224 242 260 251 238 91 28 31 1 333 310 299 281 303 269 215 212 214 218
285 287 292 300 307 315 320 325 324 336 277 234 246 31 84 141 194 216 223 222 165 221 211 275 305 298 298 316 315 154 345 303 265 238 337 248 240 272 185 109 62 4 334 317 293 292 289 289 290 282 279 291 326 194
283 284 288 298 305 315 323 318 329 336 347 312 305 299 253 225 224 233 210 194 234 298 197 253 286 312 296 339 276 207 194 211 236 310 57 243 2 31 25 1 311 358 317 320 294 271 266 260 262 265 256 206 33 280
280 282 283 295 304 308 313 320 331 316 320 247 233 235 213 244 340 249 268 98 296 249 303 286 292 284 306 311 264 276 256 213 154 135 261 260 95 68 96 166 304 340 338 333 328 318 308 279 264 263 272 257 141 241
277 281 282 291 300 307 279 321 326 330 251 241 204 275 224 193 256 267 276 284 261 275 284 292 288 265 241 264 295 283 286 308 269 250 15 116 93 96 293 339 329 339 343 340 332 325 318 305 271 264 261 248 139 148
276 284 289 291 296 271 313 324 301 210 269 248 235 230 234 251 244 264 303 331 287 274 296 272 261 231 266 263 209 184 246 241 256 22 64 88 52 39 9 338 342 340 339 330 322 324 318 308 316 243 247 144 114 118
287 299 272 264 278 322 323 318 250 234 246 242 244 263 281 282 272 290 286 253 315 309 314 305 264 256 233 242 263 246 324 352 23 52 70 145 322 336 328 329 330 327 325 323 317 323 313 302 299 317 150 147 141 162
277 257 244 274 310 326 285 235 214 229 260 250 231 252 297 288 273 344 158 334 320 339 306 298 272 329 298 251 248 2 17 347 356 353 313 111 305 320 327 324 319 315 317 314 314 319 307 294 298 286 170 112 164 142
248 246 244 299 323 309 224 207 236 245 240 238 253 261 268 296 12 345 17 355 345 328 346 312 313 272 266 300 339 336 333 328 332 335 330 340 343 322 309 299 301 312 307 307 311 302 305 289 293 275 152 154 134 123
233 252 277 293 301 282 232 207 230 255 251 258 210 232 272 69 316 8 49 55 350 8 335 316 265 282 313 329 318 312 317 320 313 313 315 310 304 308 317 310 285 292 286 302 300 316 327 352 13 15 149 171 138 143
274 279 278 282 197 242 254 243 184 261 276 298 243 262 330 308 128 143 87 61 40 11 342 319 315 318 290 295 290 287 291 293 304 300 299 301 311 305 297 299 298 295 295 301 308 268 196 80 69 72 49 3 171 147
289 214 199 160 198 245 283 252 222 232 264 288 280 2 241 230 276 118 125 186 65 27 339 342 306 302 295 284 280 284 279 282 268 260 291 304 308 306 312 298 298 284 295 302 222 106 130 125 111 94 82 36 334 87
225 287 254 189 228 231 260 249 263 329 241 272 292 242 245 253 285 307 136 82 87 77 68 262 283 328 338 1 3 18 22 24 43 34 23 12 343 351 330 346 337 338 307 274 186 165 134 138 129 128 131 157 174 240
258 225 240 208 213 230 261 256 235 242 246 277 222 107 349 354 263 182 143 145 130 123 142 206 335 5 354 13 35 32 28 43 41 32 31 34 42 41 47 35 14 5 346 280 203 154 128 128 108 121 110 170 271 247
233 250 238 218 196 246 239 219 217 232 206 234 278 263 251 213 209 110 174 154 170 150 168 191 172 174 215 240 64 13 21 63 66 55 65 74 63 50 50 41 26 20 14 104 95 96 96 96 80 57 272 265 240 88
223 249 197 253 239 213 248 214 224 256 264 266 266 249 252 175 252 196 148 166 162 195 182 211 228 209 164 150 231 200 191 169 137 135 149 126 120 97 70 66 71 61 42 54 71 81 83 85 69 141 224 21 349 336
224 221 194 233 215 214 211 245 191 211 240 242 254 250 258 254 273 113 44 201 201 168 146 125 241 255 184 177 186 211 188 184 227 120 196 185 88 62 74 135 182 173 151 124 147 161 158 148 151 178 201 213 203 210
243 243 210 236 280 261 298 195 199 257 208 236 245 212 222 256 93 132 185 226 92 236 158 175 204 214 316 125 173 61 88 135 125 140 143 105 74 54 50 47 34 21 41 39 51 50 61 70 74 88 72 54 36 35
245 258 249 233 225 238 232 215 117 256 243 240 249 189 8 5 117 191 178 159 183 197 199 179 163 198 170 80 65 301 321 1 40 106 105 107 111 104 96 93 78 60 50 49 41 34 46 46 76 87 81 64 51 34
232 241 241 258 241 277 260 172 218 225 298 208 148 44 221 127 70 161 158 162 199 151 354 211 36 335 117 129 150 155 176 292 256 137 114 104 83 75 65 59 51 83 84 70 64 67 63 49 42 65 76 80 71 57
238 240 238 242 233 226 232 241 240 170 241 182 159 104 69 119 133 167 184 209 227 171 193 182 176 234 141 149 141 166 183 183 206 240 99 97 89 79 71 64 57 48 52 73 73 71 62 68 58 54 54 57 69 73
232 221 232 236 229 215 222 176 296 210 143 74 114 88 182 185 159 186 224 221 191 97 253 224 105 182 154 166 157 169 150 109 67 62 90 93 81 70 78 81 73 62 63 62 69 75 77 74 67 62 61 68 55 60
235 241 223 231 250 191 169 64 271 200 161 37 100 171 163 131 169 186 214 197 183 228 74 236 169 109 213 146 116 87 74 103 92 64 65 86 80 68 76 86 84 92 89 72 68 75 75 70 67 73 74 67 77 83
223 228 232 224 24 55 294 193 104 259 231 143 317 185 162 222 179 176 199 205 192 212 207 153 158 121 117 77 95 99 92 103 103 88 75 65 52 28 17 38 72 83 86 98 103 96 83 78 79 73 68 68 66 67